• In Belarus
  • List of Countries
  • For 7 days
  • Water Temperature
  • Satellite Maps
  • Weather Map
  • Weather Widgets
  • user-avatar
    Login

    Hourly Weather Sainte-Anne-des-Monts

    Today, 17 January, Thursday

    Time Temperature Precipitation Wind Pressure Humidity
    00:00 -21°C° 0.1 mm 12 mps 752 mmHg 87%
    01:00 -23°C° 0.1 mm 12 mps 753 mmHg 89%
    02:00 -25°C° 0.1 mm 13 mps 754 mmHg 92%
    03:00 -26°C° 0.1 mm 13 mps 755 mmHg 93%
    04:00 -28°C° 0.1 mm 13 mps 756 mmHg 95%
    05:00 -29°C° 0.1 mm 13 mps 756 mmHg 96%
    06:00 -30°C° 0.1 mm 12 mps 757 mmHg 97%
    07:00 -30°C° 0.1 mm 12 mps 759 mmHg 97%
    08:00 -30°C° 0.1 mm 12 mps 760 mmHg 97%
    09:00 -29°C° 0.1 mm 11 mps 761 mmHg 96%
    10:00 -29°C° 0.1 mm 11 mps 762 mmHg 95%
    11:00 -29°C° 0.1 mm 10 mps 763 mmHg 95%
    12:00 -29°C° 0.1 mm 10 mps 763 mmHg 94%
    13:00 -28°C° 0.1 mm 10 mps 763 mmHg 93%
    14:00 -28°C° 0.1 mm 10 mps 763 mmHg 92%
    15:00 -28°C° 0.1 mm 10 mps 764 mmHg 92%
    16:00 -27°C° 0.1 mm 9 mps 764 mmHg 92%
    17:00 -27°C° 0.1 mm 9 mps 765 mmHg 92%
    18:00 -26°C° 0 mm 9 mps 765 mmHg 92%
    19:00 -26°C° 0 mm 8 mps 765 mmHg 91%
    20:00 -24°C° 0 mm 8 mps 766 mmHg 91%
    21:00 -24°C° 0.1 mm 7 mps 766 mmHg 91%
    22:00 -24°C° 0.1 mm 7 mps 766 mmHg 91%
    23:00 -23°C° 0.1 mm 6 mps 766 mmHg 92%

    Tomorrow, 18 January, Friday

    Time Temperature Precipitation Wind Pressure Humidity
    00:00 -22°C° 0 mm 5 mps 766 mmHg 92%
    01:00 -24°C° 0 mm 5 mps 766 mmHg 93%
    02:00 -23°C° 0 mm 4 mps 766 mmHg 93%
    03:00 -23°C° 0 mm 4 mps 766 mmHg 91%
    04:00 -23°C° 0 mm 4 mps 766 mmHg 88%
    05:00 -23°C° 0 mm 4 mps 765 mmHg 86%
    06:00 -23°C° 0 mm 4 mps 765 mmHg 85%
    07:00 -22°C° 0 mm 4 mps 765 mmHg 84%
    08:00 -22°C° 0 mm 4 mps 765 mmHg 83%
    09:00 -19°C° 0 mm 4 mps 764 mmHg 80%
    10:00 -18°C° 0 mm 4 mps 764 mmHg 77%
    11:00 -17°C° 0 mm 5 mps 763 mmHg 74%
    12:00 -17°C° 0.1 mm 5 mps 762 mmHg 76%
    13:00 -15°C° 0.1 mm 5 mps 761 mmHg 78%
    14:00 -14°C° 0.1 mm 5 mps 759 mmHg 79%
    15:00 -14°C° 0.1 mm 5 mps 758 mmHg 81%
    16:00 -14°C° 0.1 mm 5 mps 757 mmHg 83%
    17:00 -14°C° 0.1 mm 5 mps 756 mmHg 85%
    18:00 -14°C° 0.2 mm 6 mps 755 mmHg 85%
    19:00 -12°C° 0.2 mm 6 mps 754 mmHg 85%
    20:00 -11°C° 0.2 mm 6 mps 753 mmHg 86%
    21:00 -12°C° 0.2 mm 7 mps 752 mmHg 88%
    22:00 -11°C° 0.2 mm 8 mps 752 mmHg 89%
    23:00 -11°C° 0.2 mm 9 mps 752 mmHg 91%

    Day after tomorrow, 19 January, Saturday

    Time Temperature Precipitation Wind Pressure Humidity
    00:00 -17°C° 0.1 mm 11 mps 753 mmHg 92%
    01:00 -22°C° 0.1 mm 12 mps 754 mmHg 93%
    02:00 -28°C° 0.1 mm 13 mps 755 mmHg 94%
    03:00 -29°C° 0.1 mm 13 mps 756 mmHg 95%
    04:00 -30°C° 0.1 mm 13 mps 757 mmHg 96%
    05:00 -31°C° 0.1 mm 13 mps 759 mmHg 97%
    06:00 -33°C° 0.1 mm 13 mps 760 mmHg 97%
    07:00 -32°C° 0.1 mm 12 mps 761 mmHg 97%
    08:00 -32°C° 0.1 mm 12 mps 762 mmHg 97%
    09:00 -32°C° 0.1 mm 11 mps 763 mmHg 97%
    10:00 -32°C° 0.1 mm 11 mps 764 mmHg 96%
    11:00 -31°C° 0.1 mm 10 mps 765 mmHg 96%
    12:00 -31°C° 0.1 mm 10 mps 766 mmHg 96%
    13:00 -31°C° 0.1 mm 9 mps 766 mmHg 95%
    14:00 -29°C° 0.1 mm 8 mps 767 mmHg 95%
    15:00 -30°C° 0.1 mm 8 mps 767 mmHg 96%
    16:00 -30°C° 0.1 mm 8 mps 768 mmHg 96%
    17:00 -30°C° 0.1 mm 7 mps 769 mmHg 97%
    18:00 -30°C° 0.1 mm 7 mps 769 mmHg 97%
    19:00 -29°C° 0.1 mm 6 mps 770 mmHg 96%
    20:00 -28°C° 0.1 mm 5 mps 770 mmHg 96%
    21:00 -27°C° 0 mm 4 mps 771 mmHg 97%
    22:00 -26°C° 0 mm 3 mps 771 mmHg 97%
    23:00 -26°C° 0 mm 3 mps 771 mmHg 97%

    20 January, Sunday

    Time Temperature Precipitation Wind Pressure Humidity
    00:00 -25°C° 0 mm 2 mps 771 mmHg 97%
    01:00 -25°C° 0 mm 2 mps 771 mmHg 97%
    02:00 -25°C° 0 mm 2 mps 771 mmHg 97%
    03:00 -22°C° 0 mm 1 mps 770 mmHg 96%
    04:00 -21°C° 0 mm 1 mps 770 mmHg 95%
    05:00 -21°C° 0 mm 1 mps 770 mmHg 94%
    06:00 -23°C° 0.2 mm 2 mps 770 mmHg 94%
    07:00 -21°C° 0.2 mm 2 mps 769 mmHg 94%
    08:00 -23°C° 0.2 mm 3 mps 769 mmHg 94%
    09:00 -23°C° 0.3 mm 4 mps 768 mmHg 92%
    10:00 -22°C° 0.3 mm 4 mps 767 mmHg 90%
    11:00 -21°C° 0.3 mm 5 mps 767 mmHg 89%
    12:00 -20°C° 0.7 mm 5 mps 765 mmHg 90%
    13:00 -20°C° 0.7 mm 6 mps 764 mmHg 91%
    14:00 -20°C° 0.7 mm 6 mps 762 mmHg 93%
    15:00 -18°C° 2.1 mm 8 mps 761 mmHg 94%
    16:00 -17°C° 2.1 mm 9 mps 759 mmHg 96%
    17:00 -17°C° 2.1 mm 11 mps 757 mmHg 97%
    18:00 -17°C° 2.3 mm 12 mps 756 mmHg 96%
    19:00 -17°C° 2.3 mm 13 mps 754 mmHg 95%
    20:00 -18°C° 2.3 mm 14 mps 752 mmHg 94%
    21:00 -18°C° 1.9 mm 14 mps 750 mmHg 94%
    22:00 -18°C° 1.9 mm 15 mps 748 mmHg 94%
    23:00 -18°C° 1.9 mm 15 mps 746 mmHg 94%

    21 January, Monday

    Time Temperature Precipitation Wind Pressure Humidity
    00:00 -18°C° 1.1 mm 14 mps 745 mmHg 94%
    01:00 -18°C° 1.1 mm 14 mps 744 mmHg 93%
    02:00 -16°C° 1.1 mm 13 mps 743 mmHg 93%
    03:00 -17°C° 0.3 mm 12 mps 743 mmHg 94%
    04:00 -17°C° 0.3 mm 11 mps 743 mmHg 94%
    05:00 -17°C° 0.3 mm 10 mps 742 mmHg 95%
    06:00 -17°C° 0.6 mm 9 mps 743 mmHg 96%
    07:00 -19°C° 0.6 mm 9 mps 744 mmHg 96%
    08:00 -19°C° 0.6 mm 8 mps 744 mmHg 97%
    09:00 -19°C° 0.4 mm 8 mps 745 mmHg 97%
    10:00 -19°C° 0.4 mm 8 mps 745 mmHg 97%
    11:00 -19°C° 0.4 mm 8 mps 746 mmHg 97%
    12:00 -19°C° 0.2 mm 8 mps 746 mmHg 97%
    13:00 -19°C° 0.2 mm 8 mps 746 mmHg 96%
    14:00 -19°C° 0.2 mm 8 mps 746 mmHg 96%
    15:00 -19°C° 0.2 mm 8 mps 746 mmHg 96%
    16:00 -21°C° 0.2 mm 8 mps 747 mmHg 95%
    17:00 -21°C° 0.2 mm 8 mps 747 mmHg 95%
    18:00 -21°C° 0.2 mm 8 mps 748 mmHg 95%
    19:00 -21°C° 0.2 mm 8 mps 748 mmHg 95%
    20:00 -22°C° 0.2 mm 8 mps 748 mmHg 96%
    21:00 -22°C° 0.2 mm 8 mps 748 mmHg 96%
    22:00 -21°C° 0.2 mm 8 mps 749 mmHg 95%
    23:00 -21°C° 0.2 mm 8 mps 749 mmHg 95%

    22 January, Tuesday

    Time Temperature Precipitation Wind Pressure Humidity
    00:00 -21°C° 0.2 mm 9 mps 749 mmHg 96%
    01:00 -21°C° 0.2 mm 9 mps 749 mmHg 96%
    02:00 -22°C° 0.2 mm 10 mps 749 mmHg 96%
    03:00 -20°C° 0.2 mm 10 mps 750 mmHg 96%
    04:00 -20°C° 0.2 mm 10 mps 750 mmHg 95%
    05:00 -20°C° 0.2 mm 9 mps 751 mmHg 95%
    06:00 -20°C° 0.2 mm 9 mps 751 mmHg 95%
    07:00 -19°C° 0.2 mm 9 mps 752 mmHg 94%
    08:00 -19°C° 0.2 mm 9 mps 753 mmHg 94%
    09:00 -19°C° 0.2 mm 9 mps 754 mmHg 94%
    10:00 -18°C° 0.2 mm 8 mps 755 mmHg 94%
    11:00 -17°C° 0.2 mm 8 mps 756 mmHg 94%
    12:00 -17°C° 0.1 mm 7 mps 756 mmHg 93%
    13:00 -17°C° 0.1 mm 7 mps 757 mmHg 92%
    14:00 -15°C° 0.1 mm 6 mps 757 mmHg 91%
    15:00 -16°C° 0.1 mm 6 mps 758 mmHg 92%
    16:00 -16°C° 0.1 mm 6 mps 758 mmHg 92%
    17:00 -16°C° 0.1 mm 6 mps 759 mmHg 93%
    18:00 -17°C° 0.1 mm 5 mps 760 mmHg 94%
    19:00 -17°C° 0.1 mm 5 mps 760 mmHg 94%
    20:00 -16°C° 0.1 mm 4 mps 761 mmHg 95%
    21:00 -16°C° 0 mm 3 mps 761 mmHg 95%
    22:00 -16°C° 0 mm 2 mps 761 mmHg 96%
    23:00 -15°C° 0 mm 1 mps 761 mmHg 96%
    Show more